| time (UTC) | temp F | wind direction | speed MPH | gust MPH | rain 1hr in | rain 24hr in | rain mn in | humidity % | barometer mb |
| 20260504185038 | 75 | 215 | 1.0 | 7.0 | 0.00 | 0.00 | 0.00 | 32 | 1008.0 |
| 20260504184547 | 75 | 355 | 1.0 | 7.0 | 0.00 | 0.00 | 0.00 | 31 | 1008.1 |
| 20260504184037 | 75 | 73 | 1.0 | 7.0 | 0.00 | 0.00 | 0.00 | 32 | 1008.1 |
| 20260504183537 | 74 | 59 | 2.0 | 6.0 | 0.00 | 0.00 | 0.00 | 33 | 1008.1 |
| 20260504183035 | 74 | 171 | 2.0 | 7.0 | 0.00 | 0.00 | 0.00 | 32 | 1008.1 |
| 20260504182535 | 74 | 33 | 2.0 | 7.0 | 0.00 | 0.00 | 0.00 | 34 | 1008.2 |
| 20260504182034 | 73 | 92 | 1.0 | 5.0 | 0.00 | 0.00 | 0.00 | 34 | 1008.2 |
| 20260504181536 | 73 | 96 | 2.0 | 5.0 | 0.00 | 0.00 | 0.00 | 34 | 1008.2 |
| 20260504181033 | 73 | 221 | 0.0 | 7.0 | 0.00 | 0.00 | 0.00 | 34 | 1008.3 |
| 20260504180532 | 73 | 49 | 1.0 | 5.0 | 0.00 | 0.00 | 0.00 | 34 | 1008.2 |
| 20260504180032 | 71 | 65 | 0.0 | 5.0 | 0.00 | 0.00 | 0.00 | 41 | 1008.3 |
| 20260504175530 | 69 | 201 | 2.0 | 4.0 | 0.00 | 0.00 | 0.00 | 45 | 1008.3 |
| 20260504175030 | 69 | 244 | 3.0 | 4.0 | 0.00 | 0.00 | 0.00 | 43 | 1008.3 |
| 20260504174530 | 69 | 254 | 1.0 | 5.0 | 0.00 | 0.00 | 0.00 | 43 | 1008.4 |
| 20260504174029 | 68 | 185 | 3.0 | 5.0 | 0.00 | 0.00 | 0.00 | 47 | 1008.4 |
| 20260504173528 | 68 | 205 | 2.0 | 5.0 | 0.00 | 0.00 | 0.00 | 47 | 1008.4 |
| 20260504173027 | 67 | 211 | 1.0 | 4.0 | 0.00 | 0.00 | 0.00 | 46 | 1008.4 |
| 20260504172525 | 67 | 192 | 2.0 | 5.0 | 0.00 | 0.00 | 0.00 | 48 | 1008.4 |
| 20260504172023 | 66 | 207 | 2.0 | 5.0 | 0.00 | 0.00 | 0.00 | 49 | 1008.4 |
| 20260504171524 | 65 | 200 | 2.0 | 4.0 | 0.00 | 0.00 | 0.00 | 49 | 1008.5 |
| 20260504171022 | 65 | 253 | 0.0 | 3.0 | 0.00 | 0.00 | 0.00 | 51 | 1008.4 |
| 20260504170520 | 64 | 202 | 0.0 | 4.0 | 0.00 | 0.00 | 0.00 | 51 | 1008.5 |
| 20260504151004 | 51 | 231 | 0.0 | 1.0 | 0.00 | 0.00 | 0.00 | 77 | 1009.0 |
| 20260504150504 | 50 | 231 | 1.0 | 1.0 | 0.00 | 0.00 | 0.00 | 77 | 1009.0 |
| 20260504141001 | 47 | 184 | 0.0 | 2.0 | 0.00 | 0.00 | 0.00 | 83 | 1008.9 |
| 20260504140502 | 47 | 185 | 0.0 | 1.0 | 0.00 | 0.00 | 0.00 | 85 | 1008.9 |
| 20260504130554 | 45 | 30 | 0.0 | 1.0 | 0.00 | 0.00 | 0.00 | 87 | 1008.3 |
| 20260504110538 | 47 | 38 | 0.0 | 2.0 | 0.00 | 0.00 | 0.00 | 81 | 1007.9 |
| 20260504100529 | 49 | 37 | 0.0 | 2.0 | 0.00 | 0.00 | 0.00 | 79 | 1007.8 |
| 20260504081514 | 52 | 34 | 0.0 | 2.0 | 0.00 | 0.00 | 0.00 | 71 | 1007.4 |
| 20260504081015 | 53 | 34 | 1.0 | 2.0 | 0.00 | 0.00 | 0.00 | 70 | 1007.4 |
| 20260504080514 | 53 | 32 | 0.0 | 2.0 | 0.00 | 0.00 | 0.00 | 69 | 1007.4 |
| 20260504050601 | 62 | 32 | 0.0 | 2.0 | 0.00 | 0.00 | 0.00 | 50 | 1007.3 |
| 20260504045600 | 63 | 32 | 1.0 | 2.0 | 0.00 | 0.00 | 0.00 | 49 | 1007.4 |
| 20260504045100 | 63 | 31 | 1.0 | 2.0 | 0.00 | 0.00 | 0.00 | 48 | 1007.3 |
| 20260504044600 | 63 | 38 | 0.0 | 2.0 | 0.00 | 0.00 | 0.00 | 48 | 1007.3 |
| 20260504044100 | 64 | 38 | 0.0 | 1.0 | 0.00 | 0.00 | 0.00 | 48 | 1007.3 |
| 20260504043600 | 64 | 38 | 0.0 | 2.0 | 0.00 | 0.00 | 0.00 | 48 | 1007.3 |
| 20260504043105 | 64 | 36 | 0.0 | 2.0 | 0.00 | 0.00 | 0.00 | 47 | 1007.3 |
| 20260504042559 | 65 | 36 | 0.0 | 2.0 | 0.00 | 0.00 | 0.00 | 47 | 1007.3 |
| 20260504042100 | 65 | 36 | 0.0 | 2.0 | 0.00 | 0.00 | 0.00 | 45 | 1007.3 |
| 20260504041559 | 66 | 36 | 1.0 | 2.0 | 0.00 | 0.00 | 0.00 | 43 | 1007.2 |
| 20260504041059 | 67 | 36 | 0.0 | 2.0 | 0.00 | 0.00 | 0.00 | 42 | 1007.2 |
| 20260504040559 | 67 | 36 | 0.0 | 2.0 | 0.00 | 0.00 | 0.00 | 42 | 1007.3 |
| 20260504040132 | 68 | 36 | 1.0 | 1.0 | 0.00 | 0.00 | 0.00 | 40 | 1007.2 |
| 20260504035559 | 68 | 36 | 1.0 | 1.0 | 0.00 | 0.00 | 0.00 | 40 | 1007.2 |
| 20260504035102 | 69 | 36 | 1.0 | 2.0 | 0.00 | 0.00 | 0.00 | 39 | 1007.1 |
| 20260504034603 | 70 | 35 | 1.0 | 2.0 | 0.00 | 0.00 | 0.00 | 37 | 1007.1 |
| 20260504034058 | 71 | 35 | 0.0 | 2.0 | 0.00 | 0.00 | 0.00 | 35 | 1007.1 |
| 20260504033558 | 71 | 35 | 1.0 | 2.0 | 0.00 | 0.00 | 0.00 | 35 | 1007.1 |
| 20260504033059 | 71 | 36 | 1.0 | 1.0 | 0.00 | 0.00 | 0.00 | 34 | 1007.0 |
| 20260504032558 | 72 | 36 | 1.0 | 2.0 | 0.00 | 0.00 | 0.00 | 34 | 1006.9 |
| 20260504032102 | 72 | 36 | 1.0 | 2.0 | 0.00 | 0.00 | 0.00 | 33 | 1007.0 |
| 20260504031614 | 72 | 35 | 1.0 | 2.0 | 0.00 | 0.00 | 0.00 | 34 | 1006.9 |
| 20260504031057 | 73 | 31 | 1.0 | 3.0 | 0.00 | 0.00 | 0.00 | 32 | 1006.9 |
| 20260504030557 | 73 | 32 | 1.0 | 3.0 | 0.00 | 0.00 | 0.00 | 33 | 1007.0 |
| 20260504030057 | 73 | 340 | 1.0 | 2.0 | 0.00 | 0.00 | 0.00 | 32 | 1006.9 |
| 20260504025557 | 74 | 302 | 0.0 | 2.0 | 0.00 | 0.00 | 0.00 | 31 | 1007.0 |
| 20260504025058 | 75 | 315 | 0.0 | 2.0 | 0.00 | 0.00 | 0.00 | 33 | 1007.0 |
| 20260504024603 | 76 | 325 | 0.0 | 4.0 | 0.00 | 0.00 | 0.00 | 31 | 1007.0 |
| 20260504024056 | 76 | 267 | 1.0 | 4.0 | 0.00 | 0.00 | 0.00 | 29 | 1007.0 |
| 20260504023558 | 77 | 250 | 2.0 | 7.0 | 0.00 | 0.00 | 0.00 | 28 | 1007.0 |
| 20260504023056 | 77 | 275 | 2.0 | 7.0 | 0.00 | 0.00 | 0.00 | 28 | 1007.0 |
| 20260504022556 | 78 | 257 | 3.0 | 6.0 | 0.00 | 0.00 | 0.00 | 30 | 1007.0 |
| 20260504022054 | 78 | 242 | 3.0 | 4.0 | 0.00 | 0.00 | 0.00 | 28 | 1007.0 |
| 20260504021554 | 79 | 225 | 1.0 | 3.0 | 0.00 | 0.00 | 0.00 | 28 | 1007.0 |
| 20260504021053 | 79 | 209 | 2.0 | 3.0 | 0.00 | 0.00 | 0.00 | 25 | 1007.1 |
| 20260504020555 | 79 | 208 | 1.0 | 3.0 | 0.00 | 0.00 | 0.00 | 26 | 1007.1 |
| 20260504020108 | 80 | 234 | 1.0 | 3.0 | 0.00 | 0.00 | 0.00 | 25 | 1007.1 |
| 20260504015557 | 80 | 240 | 1.0 | 3.0 | 0.00 | 0.00 | 0.00 | 27 | 1007.2 |
| 20260504015054 | 80 | 196 | 2.0 | 3.0 | 0.00 | 0.00 | 0.00 | 25 | 1007.2 |
| 20260504014552 | 80 | 247 | 1.0 | 4.0 | 0.00 | 0.00 | 0.00 | 25 | 1007.3 |
| 20260504014051 | 80 | 233 | 2.0 | 4.0 | 0.00 | 0.00 | 0.00 | 25 | 1007.3 |
| 20260504013551 | 80 | 248 | 1.0 | 4.0 | 0.00 | 0.00 | 0.00 | 24 | 1007.4 |
| 20260504013051 | 80 | 212 | 2.0 | 4.0 | 0.00 | 0.00 | 0.00 | 25 | 1007.5 |
| 20260504012550 | 80 | 253 | 1.0 | 3.0 | 0.00 | 0.00 | 0.00 | 25 | 1007.5 |
| 20260504012050 | 80 | 241 | 2.0 | 4.0 | 0.00 | 0.00 | 0.00 | 26 | 1007.5 |
| 20260504011549 | 80 | 200 | 2.0 | 4.0 | 0.00 | 0.00 | 0.00 | 24 | 1007.5 |
| 20260504011048 | 80 | 186 | 2.0 | 3.0 | 0.00 | 0.00 | 0.00 | 25 | 1007.6 |
| 20260504010547 | 80 | 197 | 1.0 | 3.0 | 0.00 | 0.00 | 0.00 | 24 | 1007.7 |
| 20260504010050 | 81 | 209 | 1.0 | 5.0 | 0.00 | 0.00 | 0.00 | 23 | 1007.7 |
| 20260504005546 | 81 | 198 | 2.0 | 5.0 | 0.00 | 0.00 | 0.00 | 24 | 1007.8 |
| 20260504005049 | 81 | 250 | 2.0 | 4.0 | 0.00 | 0.00 | 0.00 | 25 | 1007.8 |
| 20260504004546 | 80 | 245 | 2.0 | 5.0 | 0.00 | 0.00 | 0.00 | 24 | 1007.8 |
| 20260504004046 | 80 | 241 | 3.0 | 5.0 | 0.00 | 0.00 | 0.00 | 24 | 1007.9 |
| 20260504003544 | 81 | 266 | 2.0 | 5.0 | 0.00 | 0.00 | 0.00 | 24 | 1008.0 |
| 20260504003045 | 80 | 259 | 3.0 | 5.0 | 0.00 | 0.00 | 0.00 | 24 | 1008.0 |
| 20260504002544 | 80 | 303 | 1.0 | 5.0 | 0.00 | 0.00 | 0.00 | 24 | 1008.1 |
| 20260504002043 | 81 | 269 | 1.0 | 5.0 | 0.00 | 0.00 | 0.00 | 25 | 1008.1 |
| 20260504001550 | 81 | 261 | 1.0 | 6.0 | 0.00 | 0.00 | 0.00 | 24 | 1008.1 |
| 20260504001042 | 81 | 232 | 3.0 | 6.0 | 0.00 | 0.00 | 0.00 | 24 | 1008.2 |
| 20260504000541 | 81 | 250 | 1.0 | 5.0 | 0.00 | 0.00 | 0.00 | 24 | 1008.3 |
| 20260504000040 | 81 | 344 | 1.0 | 5.0 | 0.00 | 0.00 | 0.00 | 25 | 1008.3 |
| 20260503235540 | 81 | 243 | 2.0 | 5.0 | 0.00 | 0.00 | 0.00 | 25 | 1008.3 |
| 20260503235043 | 80 | 252 | 3.0 | 9.0 | 0.00 | 0.00 | 0.00 | 27 | 1008.3 |
| 20260503234600 | 80 | 244 | 4.0 | 9.0 | 0.00 | 0.00 | 0.00 | 25 | 1008.4 |
| 20260503234038 | 80 | 202 | 3.0 | 7.0 | 0.00 | 0.00 | 0.00 | 24 | 1008.4 |
| 20260503233541 | 81 | 155 | 2.0 | 5.0 | 0.00 | 0.00 | 0.00 | 25 | 1008.5 |
| 20260503233045 | 81 | 344 | 1.0 | 4.0 | 0.00 | 0.00 | 0.00 | 25 | 1008.6 |
| 20260503232536 | 82 | 117 | 2.0 | 3.0 | 0.00 | 0.00 | 0.00 | 24 | 1008.7 |
| 20260503232036 | 81 | 126 | 0.0 | 5.0 | 0.00 | 0.00 | 0.00 | 27 | 1008.8 |
| 20260503231535 | 79 | 302 | 2.0 | 5.0 | 0.00 | 0.00 | 0.00 | 24 | 1008.9 |
| 20260503231034 | 80 | 280 | 1.0 | 7.0 | 0.00 | 0.00 | 0.00 | 24 | 1008.9 |
| 20260503230535 | 80 | 232 | 3.0 | 7.0 | 0.00 | 0.00 | 0.00 | 24 | 1009.0 |
| 20260503230038 | 80 | 349 | 1.0 | 4.0 | 0.00 | 0.00 | 0.00 | 24 | 1009.0 |
| 20260503225531 | 80 | 52 | 1.0 | 5.0 | 0.00 | 0.00 | 0.00 | 26 | 1009.1 |
| 20260503225030 | 79 | 165 | 2.0 | 10.0 | 0.00 | 0.00 | 0.00 | 25 | 1009.2 |
| 20260503224530 | 79 | 254 | 4.0 | 11.0 | 0.00 | 0.00 | 0.00 | 24 | 1009.3 |
| 20260503224030 | 80 | 233 | 5.0 | 11.0 | 0.00 | 0.00 | 0.00 | 25 | 1009.3 |
| 20260503223527 | 80 | 243 | 4.0 | 8.0 | 0.00 | 0.00 | 0.00 | 25 | 1009.6 |
| 20260503223028 | 80 | 266 | 4.0 | 6.0 | 0.00 | 0.00 | 0.00 | 26 | 1009.6 |
| 20260503222527 | 79 | 13 | 0.0 | 7.0 | 0.00 | 0.00 | 0.00 | 25 | 1009.6 |
| 20260503222025 | 80 | 244 | 4.0 | 7.0 | 0.00 | 0.00 | 0.00 | 25 | 1009.7 |
| 20260503221529 | 80 | 240 | 4.0 | 9.0 | 0.00 | 0.00 | 0.00 | 24 | 1009.7 |
| 20260503221024 | 79 | 221 | 5.0 | 9.0 | 0.00 | 0.00 | 0.00 | 25 | 1009.8 |
| 20260503220525 | 79 | 324 | 2.0 | 9.0 | 0.00 | 0.00 | 0.00 | 24 | 1009.9 |
| 20260503220024 | 79 | 219 | 3.0 | 7.0 | 0.00 | 0.00 | 0.00 | 25 | 1009.9 |
| 20260503215523 | 80 | 265 | 1.0 | 8.0 | 0.00 | 0.00 | 0.00 | 25 | 1010.0 |
| 20260503215024 | 79 | 195 | 4.0 | 8.0 | 0.00 | 0.00 | 0.00 | 24 | 1010.1 |
| 20260503214522 | 79 | 200 | 3.0 | 8.0 | 0.00 | 0.00 | 0.00 | 25 | 1010.2 |
| 20260503214022 | 79 | 224 | 5.0 | 8.0 | 0.00 | 0.00 | 0.00 | 25 | 1010.3 |
| 20260503213522 | 80 | 340 | 1.0 | 8.0 | 0.00 | 0.00 | 0.00 | 24 | 1010.4 |
| 20260503213023 | 79 | 192 | 3.0 | 11.0 | 0.00 | 0.00 | 0.00 | 28 | 1010.4 |
| 20260503212521 | 79 | 236 | 4.0 | 9.0 | 0.00 | 0.00 | 0.00 | 26 | 1010.5 |
| 20260503212019 | 79 | 253 | 3.0 | 8.0 | 0.00 | 0.00 | 0.00 | 25 | 1010.6 |
| 20260503211518 | 79 | 263 | 1.0 | 8.0 | 0.00 | 0.00 | 0.00 | 26 | 1010.6 |
| 20260503211017 | 79 | 267 | 1.0 | 8.0 | 0.00 | 0.00 | 0.00 | 25 | 1010.8 |
| 20260503210517 | 78 | 229 | 4.0 | 8.0 | 0.00 | 0.00 | 0.00 | 24 | 1010.8 |
| 20260503210016 | 78 | 296 | 3.0 | 7.0 | 0.00 | 0.00 | 0.00 | 25 | 1010.9 |
| 20260503205516 | 78 | 239 | 3.0 | 9.0 | 0.00 | 0.00 | 0.00 | 24 | 1010.9 |
| 20260503205015 | 79 | 251 | 5.0 | 9.0 | 0.00 | 0.00 | 0.00 | 25 | 1011.0 |
| 20260503204514 | 79 | 243 | 3.0 | 9.0 | 0.00 | 0.00 | 0.00 | 25 | 1011.2 |
| 20260503204013 | 79 | 246 | 5.0 | 9.0 | 0.00 | 0.00 | 0.00 | 24 | 1011.2 |
| 20260503203514 | 79 | 246 | 2.0 | 8.0 | 0.00 | 0.00 | 0.00 | 25 | 1011.2 |
| 20260503203014 | 77 | 290 | 4.0 | 8.0 | 0.00 | 0.00 | 0.00 | 23 | 1011.4 |
| 20260503202511 | 79 | 257 | 2.0 | 6.0 | 0.00 | 0.00 | 0.00 | 25 | 1011.4 |
| 20260503202011 | 78 | 236 | 3.0 | 7.0 | 0.00 | 0.00 | 0.00 | 26 | 1011.5 |
| 20260503201510 | 77 | 262 | 3.0 | 9.0 | 0.00 | 0.00 | 0.00 | 24 | 1011.6 |
| 20260503201008 | 77 | 289 | 3.0 | 9.0 | 0.00 | 0.00 | 0.00 | 24 | 1011.7 |
| 20260503200512 | 76 | 226 | 4.0 | 8.0 | 0.00 | 0.00 | 0.00 | 22 | 1011.7 |
| 20260503200008 | 76 | 284 | 4.0 | 8.0 | 0.00 | 0.00 | 0.00 | 24 | 1011.9 |
| 20260503195507 | 77 | 267 | 2.0 | 7.0 | 0.00 | 0.00 | 0.00 | 25 | 1011.9 |
| 20260503195006 | 77 | 296 | 3.0 | 7.0 | 0.00 | 0.00 | 0.00 | 25 | 1011.9 |
| 20260503194505 | 77 | 240 | 3.0 | 7.0 | 0.00 | 0.00 | 0.00 | 25 | 1012.0 |
| 20260503194005 | 76 | 234 | 4.0 | 9.0 | 0.00 | 0.00 | 0.00 | 25 | 1012.1 |
| 20260503193504 | 76 | 257 | 3.0 | 9.0 | 0.00 | 0.00 | 0.00 | 25 | 1012.1 |
| 20260503193002 | 76 | 259 | 5.0 | 10.0 | 0.00 | 0.00 | 0.00 | 26 | 1012.2 |
| 20260503192502 | 75 | 232 | 6.0 | 10.0 | 0.00 | 0.00 | 0.00 | 28 | 1012.2 |
| 20260503192004 | 75 | 250 | 3.0 | 7.0 | 0.00 | 0.00 | 0.00 | 26 | 1012.3 |
| 20260503191603 | 75 | 336 | 3.0 | 6.0 | 0.00 | 0.00 | 0.00 | 26 | 1012.5 |
| 20260503191103 | 75 | 248 | 2.0 | 7.0 | 0.00 | 0.00 | 0.00 | 28 | 1012.4 |
| 20260503190559 | 73 | 223 | 2.0 | 7.0 | 0.00 | 0.00 | 0.00 | 30 | 1012.5 |
| 20260503190101 | 73 | 282 | 3.0 | 7.0 | 0.00 | 0.00 | 0.00 | 32 | 1012.6 |
| 20260503185556 | 73 | 238 | 3.0 | 6.0 | 0.00 | 0.00 | 0.00 | 33 | 1012.7 |